DECAYED
Showing default

NUSAT-3, 42760 (Decayed)

Orbit data source: Space-Track

NUSAT-3, 42760 was a payload satellite owned by URUGUS S.A. (AR) in LEO that was launched on Thu, 15 Jun 2017 UTC via a CHANG ZHENG 4B launch vehicle from the Jiuquan Satellite Launch Center, China (JSC). Payload-class satellites include a variety of spacecraft equipped with specific instruments for various scientific and technological missions. These include communications satellites like Starlink; space stations such as the ISS; scientific satellites like the Hubble; Earth observation satellites from companies like Planet Labs, Umbra, and HawkEye 360; GPS; miniature CubeSats for education and research; and military/defense satellites.

Not visible in the next 10 days
Identifier
42760, 2017-034C
Orbit
Decayed
Country
Flag of UnknownUnknown / ARGN
Related business
Manufacturer
URUGUS S.A.
Mission
Decayed Commercial Imaging
Bus & Motor
ALEPH, Unknown motor
Mass
37 kg wet, 37 kg dry
Launch date (UTC)
2017-06-15 (8 years ago)
Launch vehicle
CHANG ZHENG 4B
Launch site
Jiuquan Satellite Launch Center, China (JSC)
Object type
Payload
Rocket body
Debris
Shape & HBR
Box, 0.4 m
Radar Cross Section
0.380 m², Medium (>0.1 m² and < 1m²)

Expand to show TLE details & history
Last TLE update: 3 months ago

TLE from 3 months ago
0 NUSAT-3
1 42760U 17034C   25173.26452699  .06404055  92296-5  76368-3 0  9995
2 42760  42.9738 198.3940 0002330  46.3341 313.7743 16.35513327445149
Epoch: 2025-06-22T06:20Z
TLE epoch observation values (Epoch: 2025-06-22T06:20:55.131Z)
Latitude
-0.00002°
Longitude
-167.52738°
Altitude
176.47 km
Speed
7.803 km/s
True Right ascension
13h 13m 34s
True Declination
0° 00' 00"
Sunlit
Object was in full shadow at epoch
Visualization orbit readout
Latitude
Unknown
Longitude
Unknown
Altitude
Unknown
Speed
Unknown
Apparent Right ascension
Unknown
Apparent Declination
Unknown
Sunlit
N/A
Visualization observer readout
Local Sidereal Time
02:15:04
Azimuth
Unknown
Elevation
Unknown
Doppler factor
Unknown
Orbital elements
Apogee altitude
181.333 km
Perigee altitude
178.277 km
Semi-major axis
6,557.942 km
Eccentricity
0.00023
Inclination
42.9738°
RAAN
198.394°
Arg. of periapsis
46.3341°
True anomaly
313.75502°
Mean anomaly
313.7743°
Eccentric anomaly
313.76466°
Mean motion
4.08688 °/min
Orbital period
88.09 mins
BSTAR
0.00076368
Loading maneuver chart data...
Computing Atmospheric mass density...
Loading historical data...
Loading historical data...
Loading historical data...
Loading historical data...
Loading historical data...
Loading historical data...
Loading historical data...

Documentation

Showing up to 5 results
|